TimeEDT,TemperatureF,Dew PointF,Humidity,Sea Level PressureIn,VisibilityMPH,Wind Direction,Wind SpeedMPH,Gust SpeedMPH,PrecipitationIn,Events,Conditions,WindDirDegrees,DateUTC
12:15 AM,75.2,73.4,94,30.17,10.0,Calm,Calm,-,N/A,,Clear,0,2013-06-24 04:15:00
12:35 AM,75.2,73.4,94,30.16,10.0,Calm,Calm,-,N/A,,Clear,0,2013-06-24 04:35:00
12:55 AM,75.2,73.4,94,30.17,10.0,Calm,Calm,-,N/A,,Clear,0,2013-06-24 04:55:00
1:15 AM,73.4,73.4,100,30.17,10.0,Calm,Calm,-,N/A,,Clear,0,2013-06-24 05:15:00
1:35 AM,73.4,73.4,100,30.17,9.0,Calm,Calm,-,N/A,,Clear,0,2013-06-24 05:35:00
1:55 AM,71.6,71.6,100,30.17,8.0,Calm,Calm,-,N/A,,Clear,0,2013-06-24 05:55:00
2:15 AM,71.6,71.6,100,30.17,7.0,Calm,Calm,-,N/A,,Clear,0,2013-06-24 06:15:00
2:35 AM,71.6,71.6,100,30.16,7.0,Calm,Calm,-,N/A,,Clear,0,2013-06-24 06:35:00
2:55 AM,71.6,71.6,100,30.16,5.0,Calm,Calm,-,N/A,,Clear,0,2013-06-24 06:55:00
3:15 AM,71.6,71.6,100,30.17,5.0,Calm,Calm,-,N/A,,Clear,0,2013-06-24 07:15:00
3:35 AM,69.8,69.8,100,30.17,5.0,Calm,Calm,-,N/A,,Clear,0,2013-06-24 07:35:00
3:55 AM,71.6,71.6,100,30.17,7.0,Calm,Calm,-,N/A,,Clear,0,2013-06-24 07:55:00
4:15 AM,69.8,69.8,100,30.17,7.0,Calm,Calm,-,N/A,,Clear,0,2013-06-24 08:15:00
4:35 AM,69.8,69.8,100,30.17,5.0,Calm,Calm,-,N/A,,Clear,0,2013-06-24 08:35:00
4:55 AM,69.8,69.8,100,30.17,5.0,Calm,Calm,-,N/A,,Clear,0,2013-06-24 08:55:00
5:15 AM,69.8,69.8,100,30.17,4.0,Calm,Calm,-,N/A,,Clear,0,2013-06-24 09:15:00
5:35 AM,69.8,69.8,100,30.17,5.0,Calm,Calm,-,N/A,,Clear,0,2013-06-24 09:35:00
5:55 AM,68.0,68.0,100,30.18,7.0,Calm,Calm,-,N/A,,Clear,0,2013-06-24 09:55:00
6:15 AM,68.0,68.0,100,30.18,5.0,Calm,Calm,-,N/A,,Clear,0,2013-06-24 10:15:00
6:35 AM,69.8,69.8,100,30.18,4.0,Calm,Calm,-,N/A,,Clear,0,2013-06-24 10:35:00
6:50 AM,68.0,68.0,100,30.19,7.0,Calm,Calm,-,N/A,,Clear,0,2013-06-24 10:50:00
7:50 AM,73.4,73.4,100,30.20,10.0,Calm,Calm,-,N/A,,Clear,0,2013-06-24 11:50:00
8:50 AM,80.6,75.2,84,30.21,10.0,South,6.9,-,N/A,,Clear,170,2013-06-24 12:50:00
9:50 AM,82.4,73.4,74,30.21,10.0,SSE,9.2,-,N/A,,Scattered Clouds,160,2013-06-24 13:50:00
10:50 AM,84.2,73.4,70,30.22,10.0,SE,8.1,-,N/A,,Scattered Clouds,140,2013-06-24 14:50:00
11:50 AM,86.0,73.4,66,30.21,10.0,Variable,4.6,-,N/A,,Scattered Clouds,0,2013-06-24 15:50:00
12:50 PM,87.8,73.4,62,30.20,10.0,Calm,Calm,-,N/A,,Mostly Cloudy,0,2013-06-24 16:50:00
1:50 PM,87.8,71.6,58,30.18,10.0,Variable,5.8,-,N/A,,Scattered Clouds,0,2013-06-24 17:50:00
2:50 PM,89.6,68.0,49,30.16,10.0,Variable,4.6,-,N/A,,Mostly Cloudy,0,2013-06-24 18:50:00
3:50 PM,86.0,71.6,62,30.14,10.0,East,15.0,-,N/A,,Clear,100,2013-06-24 19:50:00
4:50 PM,86.0,73.4,66,30.13,10.0,East,11.5,-,N/A,,Partly Cloudy,90,2013-06-24 20:50:00
5:50 PM,86.0,73.4,66,30.12,10.0,ESE,16.1,-,N/A,,Clear,110,2013-06-24 21:50:00
6:50 PM,84.2,73.4,70,30.11,10.0,ESE,13.8,-,N/A,,Clear,120,2013-06-24 22:50:00
7:50 PM,82.4,73.4,74,30.13,10.0,ESE,9.2,-,N/A,,Clear,110,2013-06-24 23:50:00
8:15 PM,80.6,73.4,79,30.15,10.0,ESE,4.6,-,N/A,,Clear,110,2013-06-25 00:15:00
8:35 PM,80.6,73.4,79,30.15,10.0,East,3.5,-,N/A,,Clear,100,2013-06-25 00:35:00
8:55 PM,80.6,73.4,79,30.15,10.0,ESE,5.8,-,N/A,,Clear,110,2013-06-25 00:55:00
9:15 PM,80.6,73.4,79,30.16,10.0,East,4.6,-,N/A,,Clear,90,2013-06-25 01:15:00
9:35 PM,78.8,73.4,83,30.16,10.0,Calm,Calm,-,N/A,,Clear,0,2013-06-25 01:35:00
9:55 PM,78.8,73.4,83,30.18,10.0,Calm,Calm,-,N/A,,Partly Cloudy,0,2013-06-25 01:55:00
10:15 PM,77.0,73.4,89,30.17,10.0,East,3.5,-,N/A,,Partly Cloudy,90,2013-06-25 02:15:00
10:35 PM,77.0,73.4,89,30.17,10.0,SE,3.5,-,N/A,,Clear,140,2013-06-25 02:35:00
10:55 PM,77.0,73.4,89,30.18,10.0,Calm,Calm,-,N/A,,Clear,0,2013-06-25 02:55:00
11:15 PM,77.0,73.4,89,30.19,10.0,Calm,Calm,-,N/A,,Clear,0,2013-06-25 03:15:00
11:35 PM,75.2,75.2,100,30.20,10.0,Calm,Calm,-,N/A,,Clear,0,2013-06-25 03:35:00
11:55 PM,75.2,73.4,94,30.20,10.0,Calm,Calm,-,N/A,,Clear,0,2013-06-25 03:55:00